Location: Hains Lake
(37.8540°N, 99.8578°W)
Time: 21:22:05
(UTC+00:00)

deb Explorer IX - Pass Details

Date: 26 April 2021
Orbit: 541 x 1098 km, 38.8° (Epoch: 13 May)

Event Time Altitude Azimuth Distance (km) Brightness Sun altitude
Rises 15:34:52 0° 281° (WNW) 2,764 ? 43.0°
Reaches altitude 10° 15:37:06 10° 275° (W) 1,912 ? 43.5°
Maximum altitude 15:41:16 45° 203° (SSW) 876 ? 44.2°
Drops below altitude 10° 15:46:01 10° 131° (SE) 2,176 ? 45.1°
Sets 15:48:42 0° 126° (SE) 3,194 ? 45.6°
